Regional Weather Roundup
Issued by NWS

Home | Current Version | Previous Version | Graphics & Text | Print | Product List | Glossary On
Versions: 1 2 3 4 5 6 7 8 9 10 11 12 13 14 15 16 17 18 19 20 21 22 23 24 25 26 27 28 29 30 31 32 33 34 35 36 37 38 39 40 41 42 43 44 45 46 47 48 49 50
000
ASUS43 KMKX 261700
RWRWI

WISCONSIN REGIONAL WEATHER ROUNDUP
NATIONAL WEATHER SERVICE MILWAUKEE/SULLIVAN WI
1200 PM CDT MON SEP 26 2016

NOTE: "FAIR" INDICATES FEW OR NO CLOUDS BELOW 12,000 FEET WITH NO
SIGNIFICANT WEATHER AND/OR OBSTRUCTIONS TO VISIBILITY.

WIZ001-002-006>008-014>016-023>028-261800-
NORTHWEST WISCONSIN

CITY           SKY/WX    TMP DP  RH WIND       PRES   REMARKS
SUPERIOR ARPT  CLOUDY    54  44  69 W16G25    29.74S
ASHLAND        LGT RAIN  52  48  86 W15       29.70S
HAYWARD        CLOUDY    55  41  59 W10G23    29.77S
SIREN          PTSUNNY   57  40  53 W25G35    29.83S
CUMBERLAND     CLOUDY    54  37  54 W26G38    29.83S
RICE LAKE      CLOUDY    58  39  50 W16G30    29.84S
CHETEK         NOT AVBL
LADYSMITH      CLOUDY    56  40  55 W15G33    29.81S
EAU CLAIRE     MOSUNNY   60  39  45 W21G37    29.83F
MENOMONIE      MOSUNNY   61  40  44 W17G35    29.86F
NEW RICHMOND   PTSUNNY   58  38  47 W29G37    29.88S
OSCEOLA        CLOUDY    57  39  52 W22G36    29.91S
$$

WIZ003>005-009-010-017-018-261800-
NORTH CENTRAL WISCONSIN

CITY           SKY/WX    TMP DP  RH WIND       PRES   REMARKS
MANITOWISH WTR NOT AVBL
ARBOR VITAE    DRIZZLE   52  49  91 W14G21    29.72S
WOODRUFF       DRIZZLE   52  49  91 W14G21    29.72S
RHINELANDER    CLOUDY    52  44  74 W21G31    29.73F
EAGLE RIVER    CLOUDY    49  47  93 W16G25    29.69F
LAND O LAKES   DRIZZLE   49  46  92 W12G20    29.69S
PHILLIPS       CLOUDY    52  42  68 W9G20     29.75S
TOMAHAWK       DRIZZLE   51  42  69 W14G24    29.77R
MEDFORD        CLOUDY    56  39  52 W18G33    29.79F
MERRILL        CLOUDY    57  42  56 W16G22    29.77S
$$

WIZ029-030-035-036-043>047-261800-
CENTRAL WISCONSIN

CITY           SKY/WX    TMP DP  RH WIND       PRES   REMARKS
WAUSAU         PTSUNNY   58  39  49 W22G37    29.77F
MOSINEE        PTSUNNY   57  39  51 W18G31    29.81S
MARSHFIELD     PTSUNNY   60  39  45 W24G33    29.82F
STEVENS POINT  PTSUNNY   57  38  48 W22G29    29.82F
WAUPACA        MOSUNNY   64  41  43 W20G29    29.82S
WAUTOMA        PTSUNNY   63  40  42 W25G36    29.85F
WISC RAPIDS    PTSUNNY   61  41  47 NW15G29   29.85F
CAMP DOUGLAS   NOT AVBL
$$

WIZ011>013-019>022-031-037>040-048>050-261800-
NORTHEAST WISCONSIN

CITY           SKY/WX    TMP DP  RH WIND       PRES   REMARKS
ANTIGO         CLOUDY    54  43  67 W16G31    29.76S
SHAWANO        PTSUNNY   62  45  52 W15G25    29.77F
OCONTO         NOT AVBL
STURGEON BAY   PTSUNNY   59  46  62 W17G26    29.76S
GREEN BAY      LGT RAIN  62  44  51 W21G29    29.78F
MANITOWOC      NOT AVBL
APPLETON       PTSUNNY   61  37  41 W25G35    29.80F
CLINTONVILLE   NOT AVBL
OSHKOSH        MOSUNNY   62  39  42 W18G29    29.82F
$$

WIZ032>034-041-042-053>061-261800-
SOUTHWEST WISCONSIN

CITY           SKY/WX    TMP DP  RH WIND       PRES   REMARKS
LA CROSSE      SUNNY     66  38  35 W21G31    29.92F
SPARTA         SUNNY     61  41  48 W16G25    29.92S
VIROQUA        MOSUNNY   62  37  39 W12G24    29.94F
BOSCOBEL       SUNNY     65  37  35 W17G26    29.97F
PRAIRIE DU CHI SUNNY     65  34  32 W16G29    29.98F
PLATTEVILLE    MOSUNNY   64  40  41 W23G32    30.00F
$$

WIZ056-057-062-063-064-067-068-261800-
SOUTH CENTRAL WISCONSIN

CITY           SKY/WX    TMP DP  RH WIND       PRES   REMARKS
REEDSBURG      NOT AVBL
BARABOO/DELLS  SUNNY     62  39  43 W20G25    29.91F
LONE ROCK      NOT AVBL
MINERAL POINT  MOSUNNY   63  36  36 W17G31    29.98F
MADISON        MOSUNNY   62  40  44 W14G21    29.93F
MIDDLETON      NOT AVBL
WATERTOWN      SUNNY     62  42  48 W16G23    29.91S
MONROE         SUNNY     61  36  39 W21G36    29.98S
JANESVILLE     MOSUNNY   64  37  36 W24G30    29.95F
$$

WIZ051-052-058>065-066-070>072-261800-
SOUTHEAST WISCONSIN

CITY           SKY/WX    TMP DP  RH WIND       PRES   REMARKS
MILWAUKEE      MOSUNNY   66  41  40 W17G33    29.91F
WAUKESHA       MOSUNNY   61  39  44 W18G33    29.91
MILWAUKEE/TIMM MOSUNNY   63  37  39 W24G31    29.90F
RACINE         MOSUNNY   65  39  38 W21G31    29.93F
BURLINGTON     MOSUNNY   62  39  42 W20G29    29.94F
KENOSHA        MOSUNNY   64  42  44 W25G35    29.93F
FOND DU LAC    MOSUNNY   62  38  40 W22G33    29.85F
SHEBOYGAN      PTSUNNY   63  39  41 W22G37    29.84F
WEST BEND      MOSUNNY   61  39  44 W16G29    29.88S
JUNEAU         PTSUNNY   60  40  47 W16G26    29.90F
$$

LSZ147-162-261800-
LAKE SUPERIOR

STATION/POSITION TIME  TEMP    WIND        PRES    WAVE
                       AIR SEA DIR/SP/G            HT/PER
                 (UTC) (F)     (DEG/KT/KT) (MB)    (FT/S)
W MID LAKE BUOY  1550   54 55  250/ 25/ 31  999.9R   7/ 7
DEVILS ISLAND    1600   53     260/ 28/ 35 1003.2R
SAXON HARBOR     1640   52     220/  8/ 13 1005.4R
$$

LMZ867-665-643>646-261800-
LAKE MICHIGAN

STATION/POSITION TIME  TEMP    WIND        PRES    WAVE
                       AIR SEA DIR/SP/G            HT/PER
                 (UTC) (F)     (DEG/KT/KT) (MB)    (FT/S)
CHAMBERS ISLAND  1600   56     210/ 14/ 23 1006.4S
N MID LAKE BUOY  1550   58 67  240/ 25/ 31 1005.1F   6/ 7
NORTHPORT PIER   1600   58     250/  5/ 17 1006.4F
KEWAUNEE LAKESHO 1600   58     260/ 10/ 16 1008.6S
SHEBOYGAN LAKESH 1600   61     260/ 19/ 26 1010.3F
PORT WASHINGTON  1631   65     260/ 14/ 25 1012.2F
ATWATER BUOY     1600   60 55  240/ 21/ 27 1012.8F
MILWAUKEE LAKESH 1610   61     260/ 15/ 21   N/A
S MID LAKE BUOY  1550   61 71  250/ 21/ 25 1013.0F   5/ 5
KENOSHA   LAKESH 1600   62     280/ 15/ 25 1013.5F
$$

TC  - TEMPERATURE IN CELSIUS
VSB - VISIBILITY IN STATUTE MILES
WCI - WIND CHILL INDEX
HX  - HEAT INDEX





USA.gov is the U.S. government's official web portal to all federal, state and local government web resources and services.